Weather History for Kansas City International, MO

Change the Weather History Date:

Friday, March 1, 2013

  Actual Average Record
Temperature  
Mean Temperature 27 °F 39 °F  
Max Temperature 30 °F 49 °F 79 °F (1992)
Min Temperature 23 °F 28 °F -1 °F (1962)
Degree Days  
Heating Degree Days 38 26  
Month to date heating degree days 38 26  
Since 1 July heating degree days 3770 4071  
Cooling Degree Days 0 0  
Month to date cooling degree days 0 0  
Year to date cooling degree days 0 0  
Moisture  
Dew Point 19 °F    
Average Humidity 72    
Maximum Humidity 81    
Minimum Humidity 63    
Precipitation  
Precipitation T in 0.06 in 0.99 in (1991)
Month to date precipitation T 0.06  
Year to date precipitation 2.89 2.59  
Snow  
Snow T in 0.10 in 4.60 in (1953)
Month to date snowfall T 0.1  
Since 1 July snowfall 25.2 16.3  
Snow Depth 9.00 in    
Sea Level Pressure  
Sea Level Pressure 30.25 in    
Wind  
Wind Speed 10 mph (NNW)    
Max Wind Speed 17 mph    
Max Gust Speed 22 mph    
Visibility 8 miles    
Events Snow    
T = Trace of Precipitation, MM = Missing Value Source: NWS Daily Summary

Daily Weather History Graph

Daily Weather History Graph

Search for Another Location

Airport:

Trip Planner

Search our weather history database for the weather conditions in past years. The results will help you decide how hot, cold, wet, or windy it might be!

Date:

Astronomy

Mar. 01, 2013 Rise Set
Actual Time 6:51 AM CST 6:11 PM CST
Civil Twilight 6:24 AM CST 6:38 PM CST
Nautical Twilight 5:53 AM CST 7:09 PM CST
Astronomical Twilight 5:22 AM CST 7:40 PM CST
Moon 10:44 PM CST (3/1) 8:40 AM CST (3/1)
Length of Visible Light 12h 14m
Length of Day
11h 20m
Waning Gibbous, 83% of the Moon is Illuminated
Mar 1
Waning Gibbous
Mar 4
Last Quarter
Mar 11
New
Mar 19
First Quarter
Mar 27
Full

Hourly Weather History & Observations

Time (CST) Temp. Windchill Dew Point Humidity Pressure Visibility Wind Dir Wind Speed Gust Speed Precip Events Conditions
12:53 AM 28.0 °F 20.0 °F 21.0 °F 75% 30.20 in 10.0 mi NW 8.1 mph - N/A   Overcast
1:53 AM 27.0 °F 18.7 °F 21.0 °F 78% 30.20 in 10.0 mi NW 8.1 mph - N/A   Overcast
2:53 AM 27.0 °F 18.0 °F 19.9 °F 75% 30.20 in 10.0 mi NW 9.2 mph - N/A   Overcast
3:53 AM 27.0 °F 18.7 °F 19.9 °F 75% 30.20 in 10.0 mi NW 8.1 mph - N/A   Overcast
4:53 AM 26.1 °F 17.6 °F 19.9 °F 78% 30.21 in 10.0 mi NW 8.1 mph - N/A   Overcast
5:53 AM 26.1 °F 17.6 °F 19.0 °F 75% 30.22 in 10.0 mi NW 8.1 mph - N/A   Overcast
6:53 AM 26.1 °F 16.8 °F 19.0 °F 75% 30.23 in 9.0 mi NNW 9.2 mph - 0.00 in Snow Light Snow
7:53 AM 26.1 °F 14.0 °F 18.0 °F 71% 30.24 in 8.0 mi NNW 15.0 mph - 0.00 in Snow Light Snow
8:53 AM 26.1 °F 16.2 °F 19.0 °F 75% 30.25 in 7.0 mi NNW 10.4 mph - 0.00 in Snow Light Snow
9:53 AM 26.1 °F 16.2 °F 19.9 °F 78% 30.26 in 2.5 mi NW 10.4 mph - 0.00 in Snow Light Snow
10:06 AM 26.6 °F 17.5 °F 21.2 °F 80% 30.23 in 3.0 mi NW 9.2 mph - 0.00 in Snow Light Snow
10:40 AM 26.6 °F 16.8 °F 21.2 °F 80% 30.23 in 2.5 mi NNW 10.4 mph - 0.00 in Snow Light Snow
10:53 AM 27.0 °F 16.1 °F 21.0 °F 78% 30.25 in 3.0 mi NNW 12.7 mph - 0.00 in Snow Light Snow
10:57 AM 26.6 °F 15.7 °F 21.2 °F 80% 30.23 in 2.5 mi NNW 12.7 mph - 0.00 in Snow Light Snow
11:34 AM 28.4 °F 17.0 °F 19.4 °F 69% 30.23 in 4.0 mi NNW 15.0 mph - 0.00 in Snow Light Snow
11:53 AM 28.9 °F 19.2 °F 21.0 °F 72% 30.26 in 7.0 mi NNW 11.5 mph - 0.00 in Snow Light Snow
12:53 PM 28.9 °F 17.7 °F 19.9 °F 69% 30.25 in 6.0 mi North 15.0 mph - 0.00 in Snow Light Snow
1:19 PM 28.4 °F 18.0 °F 19.4 °F 69% 30.21 in 7.0 mi NNW 12.7 mph - 0.00 in Snow Light Snow
1:27 PM 28.4 °F 17.5 °F 19.4 °F 69% 30.21 in 5.0 mi North 13.8 mph - N/A Snow Light Snow
1:53 PM 30.0 °F 19.5 °F 19.9 °F 66% 30.24 in 7.0 mi NNW 13.8 mph - 0.00 in Snow Light Snow
2:53 PM 28.9 °F 19.2 °F 19.9 °F 69% 30.25 in 5.0 mi NNW 11.5 mph - 0.00 in Snow Light Snow
3:07 PM 30.2 °F 20.2 °F 21.2 °F 69% 30.22 in 7.0 mi NNW 12.7 mph - 0.00 in Snow Light Snow
3:53 PM 28.9 °F 17.7 °F 19.9 °F 69% 30.27 in 6.0 mi NNW 15.0 mph - 0.00 in   Haze
4:53 PM 28.0 °F 17.0 °F 18.0 °F 66% 30.27 in 10.0 mi North 13.8 mph - N/A   Overcast
5:53 PM 26.1 °F 16.2 °F 17.1 °F 69% 30.29 in 10.0 mi NNW 10.4 mph - N/A   Scattered Clouds
6:20 PM 26.6 °F 18.2 °F 17.6 °F 69% 30.26 in 10.0 mi NNW 8.1 mph - N/A   Mostly Cloudy
6:53 PM 26.1 °F 18.4 °F 17.1 °F 69% 30.31 in 10.0 mi NW 6.9 mph - N/A   Overcast
7:53 PM 26.6 °F 17.5 °F 17.6 °F 69% 30.28 in 10.0 mi NNW 9.2 mph - N/A   Overcast
8:53 PM 26.1 °F 16.2 °F 19.0 °F 75% 30.32 in 10.0 mi North 10.4 mph - N/A   Overcast
9:53 PM 26.1 °F 17.6 °F 19.0 °F 75% 30.34 in 10.0 mi NNW 8.1 mph - N/A   Overcast
10:53 PM 25.0 °F 16.3 °F 18.0 °F 75% 30.34 in 10.0 mi NNW 8.1 mph - N/A   Overcast
11:53 PM 23.0 °F 13.9 °F 17.1 °F 78% 30.34 in 10.0 mi NNW 8.1 mph - N/A   Overcast